Погода Спас-Деменск

Погода Спас-Деменск : погода сейчас, прогноз погоды и архив. Всё, что Вы хотите узнать о погоде Спас-Деменск!

Поиск расширенной информации на нашем сайте:

Другие новости

Новости СМИ2

Главная страница сайта

Новости сайта

03.07.2017

Напоминаем, что на нашем специализированном сайте Метеоцентр.Азия вы можете получить высокодетализированные автоматические прогнозы погоды по пунктам России, СНГ и мира в авиационном формате (включающие направление и скорость ветра, видимость, явления погоды, количество и форму облачности, нижнюю и верхнюю границу облачности).

Рекомендуем: http://www.dance-1.ru Сальса из свежих овощей

Погода Спас-Деменск - сегодня

Время (UTC), дата Ветер
(°,м/с) 
Видим.   Явления Облачность Т
(°С)
Тd
(°С)
f(%) Тe
(°С)
Pmin
(гПа)
dP
(гПа)
Po
(мм)
O2
(г/м3)
Тmin Tmax R s Состояние
почвы
12 17.06.18 120 (ЮВ) 15000 м    ясно 
+23.8 +7.4 35 +24  1017.5  -0.8  743  274           
21 17.06.18 тихо ()   10 км    3/0 верхняя 
[Ci sp]
+13 +10.8 86 +15  1017.7  0.3  742  283           
00 18.06.18 тихо ()   10 км    3/0 верхняя 
[Ci sp]
+11.4 +9.9 90 +13  1017.8  0.1  742  285           
09 18.06.18 230 (ЮЗ) 15000 м    5/0 верхняя 
[Ci sp]
+24.8 +9 37 +25  1016  -0.2  742  272           
12 18.06.18 230 (ЮЗ) 15000 м    8/4 1000 м верхняя 
[Cu med, cong|Ci sp]
+26.3 +9.2 34 +27  1015.4  -0.4  741  271           
21 18.06.18 250 (З) 15000 м    6/6 600 м 
[Sc]
+19.7 +15.8 78 +31  1015.3  0.4  741  275           
00 19.06.18 тихо ()   10 км    8/8 600 м 
[Sc]
+15.4 +14 91 +23  1015.6  0.1  741  280           
09 19.06.18 250 (З) 15000 м    8/6 1000 м верхняя 
[Cu med, cong|Ci sp]
+26.2 +12.8 43 +32  1013.8  -0.7  740  270           
12 19.06.18 250 (З) 15000 м    8/6 1000 м верхняя 
[Cu med, cong|Ci sp]
+27.2 +12.1 39 +32  1012.8  -1  739  269           
21 19.06.18 220 (ЮЗ) 10 км  в посл. час ливневой дождь  6/6 300 м кучево-дожд. 
[Cb cap]
+17 +15.3 90 +28  1011.7  738  277           
09 20.06.18 280 (З) 15000 м    5/5 600 м 
[Sc]
+20.5 +9 48 +21  1013.7  -0.4  740  276           
21 20.06.18 250 (З) 10 км    ясно 
+14.8 +8.4 65 +16  1014.5  0.8  740  281           
00 21.06.18 220 (ЮЗ) 10 км    3/3 600 м 
[Sc]
+9.3 +7.2 87 +10  1015.4  0.3  740  287           
09 21.06.18 240 (ЮЗ) 15000 м    3/0 средняя 
[Ac trans]
+22.9 +8.6 40 +23  1014.1  -0.9  740  274           
12 21.06.18 280 (З) 15000 м    6/6 1000 м 
[Cu med, cong]
+24.2 +10.7 43 +27  1013.1  -0.8  740  272           
21 21.06.18 тихо ()   15000 м    ясно 
+14.3 +12.3 88 +19  1012.1  -0.3  738  280           
00 22.06.18 120 (ЮВ) 15000 м    3/3 600 м 
[Sc]
+14.7 +11.6 82 +20  1010.9  -1.2  737  280           
18 22.06.18 300 (СЗ) 14000 м  слаб. ливневой дождь  10/10 450 м кучево-дожд. 
[Cb cap]
+16.4 +14.8 90 +26  1010.4  1.6  737  277    +28.4  0.5     
21 22.06.18 310 (СЗ) 14000 м  в посл. час гроза{ливн. осадки}  8/8 300 м кучево-дожд. 
[Cb cap]
+13.9 +12.8 93 +20  1012.6  1.8  738  281           
06 23.06.18 010 (С) 12000 м  гроза, ливневой дождь  10/10 450 м кучево-дожд. 
[Cb calv]
+13.1 +12.3 95 +19  1012.4  -0.2  738  281  +13.1    18    мокрая 
18 23.06.18 360 (С) 13000 м  гроза, ливневой дождь  10/10 420 м кучево-дожд. 
[Cb calv]
+15.7 +14.8 94 +25  1004.7  3.5  733  276    +19.2  13     
00 24.06.18 130 (ЮВ) н/о    н/о 
+15.5 +14.6 94 +26  1005.5  0.3  733  277           
06 24.06.18 210 (ЮЗ) 4{10}  9000 м  слаб. дождь  10/10 400 м 
[Frnb|Ns]
+12.9 +11.6 92 +16  1007.4  1.9  734  280  +12.9      мокрая 
09 24.06.18 240 (ЮЗ) 15000 м  {дождь}  9/9 600 м 
[Sc]
+13.2 +10.2 82 +15  1009  1.6  736  281           
21 24.06.18 210 (ЮЗ) 10 км    4/0 верхняя 
[Ci sp]
+8.9 +8 94 +10  1015.5  0.8  740  287           
Время (UTC), дата Ветер
(°,м/с) 
Видим.   Явления Облачность Т
(°С)
Тd
(°С)
f(%) Тe
(°С)
Pmin
(гПа)
dP
(гПа)
Po
(мм)
O2
(г/м3)
Тmin Tmax R s Состояние
почвы

Для получения пояснительной информации подведите курсор к названию столбца.

ПОГОДА Спас-Деменск - архив

Всё, что Вы хотите узнать о погоде Спас-Деменск - удобно и подробно!

Выберите нужную дату (начиная с 1 января 2015* года) и нажмите кнопку "Найти".
Будут отображены архивные сводки погоды по пункту Спас-Деменск, начиная с указанной даты.


Отображать данные в формате CSV (для использования в таблицах Excel)


Внимание! Наш архив погоды предназначен исключительно для личного некоммерческого использования в познавательных целях. Если Вам необходимы официальные справки о состоянии погоды (для производственных, юридических, коммерческих и т.п. целей), обращайтесь в органы Росгидромета.

*Примечание: данная дата относится к архиву по метеостанциям СССР (Россия, СНГ, Балтия).
Архив по метеостанциям Зарубежной Европы и Азии (кроме Китая) хранится 10 дней, по другим регионам земного шара (Китай, Африка, Америка, Австралия, Океания) - 1 день.

Спас-Деменск - район местоположения метеостанции


Название, широта, долгота, высота метеостанции:
Спас-Деменск 54.4°ш. 34°д. 238 м над ур. моря [Российская Федерация]

Дополнительная информация

В oтличие oт бoльшинства пoгoдных сайтoв мы публикуем пoдрoбную метеoинфoрмацию в детальнoм прoфессиoнальнoм фoрмате.

Характеристики температуры и влажнoсти вoздуха измеряются на высoте 2 м в тени вдали oт зданий и деревьев.
Скoрoсть ветра измеряется на высoте 10 м (на урoвне рoста челoвека скoрoсть ветра ниже в 1.5-2 раза). Если метеoстанция нахoдится в гoрoде или в лесу, тo скoрoсть ветра занижена на 2-4 м/с пo сравнению с oткрытым местoм. Скoрoсть ветра над акватoриями крупных рек и oзёр, а также на вершинах хoлмoв на 2-5 м/с выше, чем в oбычных услoвиях.
Атмoсфернoе давление в разных тoчках местнoсти мoжет значительнo oтличаться oт давления на метеoстанции, в зависимoсти oт услoвий рельефа (при пoдъёме на 10 м давление пoнижается примернo на 1 мм рт.ст.).